Regional Weather Roundup
Issued by NWS

Home | Current Version | Previous Version | Graphics & Text | Print | Product List | Glossary On
Versions: 1 2 3 4 5 6 7 8 9 10 11 12 13 14 15 16 17 18 19 20 21 22 23 24 25 26 27 28 29 30 31 32 33 34 35 36 37 38 39 40 41 42 43 44 45 46 47 48 49 50
000
ASUS43 KMKX 300400
RWRWI

WISCONSIN REGIONAL WEATHER ROUNDUP
NATIONAL WEATHER SERVICE MILWAUKEE/SULLIVAN WI
1100 PM CDT FRI JUL 29 2016

NOTE: "FAIR" INDICATES FEW OR NO CLOUDS BELOW 12,000 FEET WITH NO
SIGNIFICANT WEATHER AND/OR OBSTRUCTIONS TO VISIBILITY.

WIZ001-002-006>008-014>016-023>028-300500-
NORTHWEST WISCONSIN

CITY           SKY/WX    TMP DP  RH WIND       PRES   REMARKS
SUPERIOR ARPT  CLEAR     58  56  96 CALM      30.07R
ASHLAND        CLEAR     54  53  97 CALM      30.07F
HAYWARD        CLEAR     59  54  83 CALM      30.06F
SIREN          NOT AVBL
CUMBERLAND     CLEAR     63  55  77 NE5       30.06S
RICE LAKE      CLEAR     63  58  82 NE5       30.06S
CHETEK         PTCLDY    68  60  75 NE5       30.05S
LADYSMITH      MOCLDY    66  59  80 CALM      30.08S
EAU CLAIRE     NOT AVBL
MENOMONIE      CLEAR     65  56  71 CALM      30.03F
NEW RICHMOND   MOCLDY    64  60  87 CALM      30.04F
OSCEOLA        PTCLDY    62  62 100 CALM      30.07S
$$

WIZ003>005-009-010-017-018-300500-
NORTH CENTRAL WISCONSIN

CITY           SKY/WX    TMP DP  RH WIND       PRES   REMARKS
MANITOWISH WTR PTCLDY    63  57  80 CALM      30.08S
ARBOR VITAE    PTCLDY    65  60  83 CALM      30.08S
WOODRUFF       PTCLDY    65  60  83 CALM      30.08S
RHINELANDER    CLEAR     58  54  86 CALM      30.08F
EAGLE RIVER    CLOUDY    64  57  80 CALM      30.09R
LAND O LAKES   MOCLDY    66  54  65 E6        30.11R
PHILLIPS       MOCLDY    62  60  92 CALM      30.07S
TOMAHAWK       CLEAR     58  56  94 CALM      30.08S
MEDFORD        CLEAR     60  60 100 E3        30.07S
MERRILL        CLEAR     59  59 100 CALM      30.08S
$$

WIZ029-030-035-036-043>047-300500-
CENTRAL WISCONSIN

CITY           SKY/WX    TMP DP  RH WIND       PRES   REMARKS
WAUSAU         CLEAR     63  60  90 CALM      30.05S
MOSINEE        CLEAR     61  57  88 NE3       30.07S
MARSHFIELD     CLEAR     64  60  87 E5        30.04F
STEVENS POINT  CLEAR     60  58  96 N3        30.06S
WAUPACA        CLOUDY    67  63  86 CALM      30.04S
WAUTOMA        CLOUDY    67  60  78 NE5       30.03F
WISC RAPIDS    CLEAR     66  59  78 E6        30.05S
CAMP DOUGLAS   NOT AVBL
$$

WIZ011>013-019>022-031-037>040-048>050-300500-
NORTHEAST WISCONSIN

CITY           SKY/WX    TMP DP  RH WIND       PRES   REMARKS
ANTIGO         CLEAR     58  55  91 CALM      30.08F
SHAWANO        CLOUDY    71  58  63 NE6       30.05F
OCONTO         CLOUDY    67  57  69 NE3       30.04S
STURGEON BAY   CLEAR     66  57  72 NE5       30.05S
GREEN BAY      CLOUDY    66  58  75 NE8       30.03S
MANITOWOC      NOT AVBL
APPLETON       MOCLDY    70  50  49 NE8       30.02S
CLINTONVILLE   CLOUDY    66  55  68 CALM      30.04S
OSHKOSH        CLOUDY    71  54  54 E8        30.02S
$$

WIZ032>034-041-042-053>061-300500-
SOUTHWEST WISCONSIN

CITY           SKY/WX    TMP DP  RH WIND       PRES   REMARKS
LA CROSSE      MOCLDY    68  65  90 N3        30.01S
SPARTA         CLEAR     63  62  97 CALM      30.03S
VIROQUA        PTCLDY    64  64 100 E3        30.02S
BOSCOBEL       PTCLDY    66  64  93 CALM      30.00S FOG
PRAIRIE DU CHI CLOUDY    66  64  91 CALM      29.99S
PLATTEVILLE    CLEAR     67  67  99 NE6       30.00S
$$

WIZ056-057-062-063-064-067-068-300500-
SOUTH CENTRAL WISCONSIN

CITY           SKY/WX    TMP DP  RH WIND       PRES   REMARKS
REEDSBURG      CLOUDY    67  66  95 E5        30.00F
BARABOO/DELLS  CLOUDY    66  64  92 CALM      30.02F
LONE ROCK      NOT AVBL
MINERAL POINT  MOCLDY    68  68 100 NE5       30.01S
MADISON        PTCLDY    67  60  78 NE6       30.00F
MIDDLETON      PTCLDY    67  63  85 E5        30.01F
WATERTOWN      CLOUDY    67  61  83 NE7       29.99F
MONROE         DRIZZLE   64  64 100 NE8       29.98F
JANESVILLE     CLOUDY    70  64  83 NE7       29.98
$$

WIZ051-052-058>065-066-070>072-300500-
SOUTHEAST WISCONSIN

CITY           SKY/WX    TMP DP  RH WIND       PRES   REMARKS
MILWAUKEE      CLOUDY    70  65  84 N9        29.98F
WAUKESHA       PTCLDY    64  61  88 NE3       30.00F
MILWAUKEE/TIMM CLOUDY    68  61  77 NE7       30.00S
RACINE         CLOUDY    68  65  90 N7        29.99F
BURLINGTON     CLOUDY    66  64  91 N3        29.98S
KENOSHA        CLOUDY    69  66  90 NE3       29.98S
FOND DU LAC    CLOUDY    69  56  62 NE6       30.02S
SHEBOYGAN      CLOUDY    66  59  78 NE8       30.01F
WEST BEND      CLOUDY    64  61  88 NE6       30.01F
JUNEAU         CLOUDY    66  61  84 N5        30.02F
$$

LSZ147-162-300500-
LAKE SUPERIOR

STATION/POSITION TIME  TEMP    WIND        PRES    WAVE
                       AIR SEA DIR/SP/G            HT/PER
                 (UTC) (F)     (DEG/KT/KT) (MB)    (FT/S)
W MID LAKE BUOY  0250   64 62  120/  6/  8 1017.8R   1
DEVILS ISLAND    0300   65     130/  5/  6 1018.1S
PORT WING        0340   63     140/  3/  6 1017.9S
SAXON HARBOR     0300   60     190/  3/  3 1017.9R
$$

LMZ867-665-643>646-300500-
LAKE MICHIGAN

STATION/POSITION TIME  TEMP    WIND        PRES    WAVE
                       AIR SEA DIR/SP/G            HT/PER
                 (UTC) (F)     (DEG/KT/KT) (MB)    (FT/S)
CHAMBERS ISLAND  0300   71      50/  8/ 10 1017.3S
S GREEN BAY BUOY 0200   70 70   70/ 12/ 14 1016.5S
N MID LAKE BUOY  0250   71 70   60/ 10/ 10 1017.1R   1/ 3
NORTHPORT PIER   0300   70      70/  5/  6 1017.6R
SISTER BAY       0321   66        CALM       N/A
ALGOMA LAKESHORE 0313           20/  8/ 11   N/A
KEWAUNEE LAKESHO 0300                      1016.5S
SHEBOYGAN LAKESH 0300   68      10/ 10/ 11 1016.6R
PORT WASHINGTON  0300   71      30/  8/ 12 1016.6
ATWATER BUOY     0300   63 62  350/  8/ 10 1017.2F
MILWAUKEE LAKESH 0310   68     360/ 12/ 13   N/A
S MID LAKE BUOY  0250   73 74   70/ 14/ 17 1014.2R   3/ 4
KENOSHA   LAKESH 0300   71      50/ 11/ 12 1014.6S
$$

TC  - TEMPERATURE IN CELSIUS
VSB - VISIBILITY IN STATUTE MILES
WCI - WIND CHILL INDEX
HX  - HEAT INDEX





USA.gov is the U.S. government's official web portal to all federal, state and local government web resources and services.